This demonstration page uses our WeatherBlox Daily Observations layout. Learn more.

Hourly Observations for May 13, 2016

Temp ( °F °C ) Dew Point ( °F °C ) Humidity (%) Winds ( mph kmh ) Pressure ( in mb ) Visibility ( mi km ) Precip ( " mm )
12:15 am 00:15 Cloudy with Mist and Fog 63 17 63 17 100 100 SSE 7 11 29.97 1015 2 3.21868 0 0
12:35 am 00:35 Cloudy with Mist and Fog 63 17 63 17 100 100 SSE 8 13 29.97 1015 2.5 4.02335 0 0
12:55 am 00:55 Cloudy with Mist and Fog 63 17 63 17 100 100 SSE 8 13 29.97 1015 4 6.43736 0 0
1:15 am 01:15 Cloudy with Mist and Fog 63 17 63 17 100 100 SSE 5 7 29.94 1014 5 8.0467 0 0
1:35 am 01:35 Cloudy with Mist and Fog 63 17 63 17 100 100 SSE 6 9 29.94 1014 5 8.0467 0 0
1:55 am 01:55 Cloudy with Mist and Fog 63 17 63 17 100 100 SSE 5 7 29.94 1014 4 6.43736 0 0
2:15 am 02:15 Cloudy with Mist and Fog 63 17 63 17 100 100 Calm 29.91 1013 5 8.0467 0 0
2:35 am 02:35 Cloudy with Mist and Fog 63 17 63 17 100 100 SSE 8 13 29.91 1013 5 8.0467 0 0
2:55 am 02:55 Cloudy with Mist and Fog 63 17 63 17 100 100 S 5 7 29.91 1013 5 8.0467 0 0
3:15 am 03:15 Cloudy with Mist and Fog 63 17 63 17 100 100 SSE 3 6 29.91 1013 5 8.0467 0 0
3:35 am 03:35 Cloudy with Mist and Fog 63 17 63 17 100 100 SSE 3 6 29.88 1012 3 4.82802 0 0
3:55 am 03:55 Cloudy with Mist and Fog 63 17 63 17 100 100 SSE 6 9 29.88 1012 3 4.82802 0 0
4:15 am 04:15 Cloudy with Mist and Fog 63 17 63 17 100 100 S 5 7 29.88 1012 3 4.82802 0 0
4:35 am 04:35 Cloudy with Mist and Fog 63 17 63 17 100 100 S 6 9 29.88 1012 2 3.21868 0 0
4:55 am 04:55 Cloudy with Mist and Fog 63 17 63 17 100 100 SSE 6 9 29.88 1012 1.5 2.41401 0 0
5:15 am 05:15 Cloudy with Mist and Fog 63 17 63 17 100 100 S 3 6 29.88 1012 1 1.60934 0 0
5:35 am 05:35 Cloudy with Mist and Fog 63 17 63 17 100 100 SSE 3 6 29.88 1012 0.75 1.207005 0 0
5:55 am 05:55 Cloudy with Mist and Fog 63 17 63 17 100 100 SSE 5 7 29.88 1012 0.75 1.207005 0 0
6:15 am 06:15 Cloudy with Mist and Fog 63 17 63 17 100 100 S 6 9 29.88 1012 0.75 1.207005 0 0
6:35 am 06:35 Cloudy with Mist and Fog 64 18 64 18 100 100 S 6 9 29.88 1012 1.5 2.41401 0 0
6:55 am 06:55 Cloudy with Mist and Fog 64 18 64 18 100 100 SSE 7 11 29.88 1012 1.25 2.011675 0 0
7:15 am 07:15 Cloudy with Mist and Fog 64 18 64 18 100 100 S 6 9 29.88 1012 1.25 2.011675 0 0
7:35 am 07:35 Cloudy with Mist and Fog 64 18 64 18 100 100 SSE 7 11 29.88 1012 1.5 2.41401 0 0
7:55 am 07:55 Cloudy with Mist and Fog 64 18 64 18 100 100 SSE 6 9 29.88 1012 1.75 2.816345 0 0
8:15 am 08:15 Cloudy with Mist and Fog 64 18 64 18 100 100 SSE 5 7 29.88 1012 2 3.21868 0 0
8:35 am 08:35 Cloudy with Mist and Fog 64 18 64 18 100 100 S 3 6 29.88 1012 1.75 2.816345 0 0
8:55 am 08:55 Cloudy with Mist and Fog 64 18 64 18 100 100 S 6 9 29.88 1012 1.5 2.41401 0 0
9:15 am 09:15 Cloudy with Light Rain 64 18 64 18 100 100 S 3 6 29.88 1012 1.75 2.816345 0 0
9:35 am 09:35 Cloudy with Light Rain 64 18 64 18 100 100 S 5 7 29.88 1012 2.5 4.02335 0 0
9:55 am 09:55 Cloudy with Light Rain 64 18 64 18 100 100 S 3 6 29.88 1012 2.5 4.02335 0 0
10:15 am 10:15 Cloudy with Light Rain 66 19 66 19 100 100 S 5 7 29.88 1012 2.5 4.02335 0 0
10:35 am 10:35 Cloudy with Light Rain 66 19 66 19 100 100 Calm 29.88 1012 3 4.82802 0 0
10:55 am 10:55 Cloudy with Light Rain 68 20 68 20 100 100 SW 3 6 29.88 1012 4 6.43736 0 0
11:15 am 11:15 Cloudy with Light Rain 68 20 68 20 100 100 SW 3 6 29.88 1012 4 6.43736 0 0
11:35 am 11:35 Cloudy with Light Drizzle 68 20 68 20 100 100 SW 3 6 29.88 1012 7 11.26538 0 0
11:50 am 11:50 Cloudy 68 20 68 20 100 100 WSW 3 6 29.88 1012 10 16.0934 0 0
12:15 pm 12:15 Cloudy 70 21 70 21 100 100 WSW 6 9 29.88 1012 10 16.0934 0 0
12:35 pm 12:35 Cloudy 72 22 68 20 88 88 NW 9 15 29.88 1012 10 16.0934 0 0
12:55 pm 12:55 Cloudy 72 22 66 19 83 83 NW 13 20 29.88 1012 10 16.0934 0 0
1:15 pm 13:15 Cloudy 72 22 64 18 78 78 NW 12 19 29.88 1012 10 16.0934 0 0
1:35 pm 13:35 Mostly Cloudy 70 21 63 17 78 78 NW 14 22 29.85 1011 10 16.0934 0 0
1:55 pm 13:55 Sunny 72 22 63 17 73 73 NW 9 15 29.88 1012 10 16.0934 0 0
2:15 pm 14:15 Sunny 73 23 61 16 65 65 WNW 13 20 29.88 1012 10 16.0934 0 0
2:35 pm 14:35 Partly Cloudy 73 23 59 15 61 61 NW 20 31 29.85 1011 10 16.0934 0 0
2:50 pm 14:50 Sunny 75 24 57 14 54 54 WNW 17 28 29.85 1011 10 16.0934 0 0
3:15 pm 15:15 Partly Cloudy 77 25 59 15 54 54 WNW 16 26 29.85 1011 10 16.0934 0 0
3:35 pm 15:35 Partly Cloudy 77 25 57 14 51 51 NW 14 22 29.85 1011 10 16.0934 0 0
3:55 pm 15:55 Mostly Cloudy 77 25 55 13 47 47 NW 17 28 29.83 1010 10 16.0934 0 0
4:15 pm 16:15 Partly Cloudy 77 25 55 13 47 47 WNW 16 26 29.83 1010 10 16.0934 0 0
4:35 pm 16:35 Partly Cloudy 77 25 55 13 47 47 NW 15 24 29.83 1010 10 16.0934 0 0
4:55 pm 16:55 Partly Cloudy 77 25 54 12 44 44 NW 13 20 29.83 1010 10 16.0934 0 0
5:15 pm 17:15 Partly Cloudy 77 25 54 12 44 44 NW 12 19 29.85 1011 10 16.0934 0 0
5:35 pm 17:35 Mostly Cloudy 79 26 54 12 42 42 WNW 15 24 29.85 1011 10 16.0934 0 0
5:55 pm 17:55 Mostly Cloudy 77 25 54 12 44 44 WNW 20 31 29.85 1011 10 16.0934 0 0
6:15 pm 18:15 Partly Cloudy 77 25 54 12 44 44 WNW 14 22 29.85 1011 10 16.0934 0 0
6:35 pm 18:35 Sunny 77 25 52 11 42 42 W 14 22 29.85 1011 10 16.0934 0 0
6:55 pm 18:55 Partly Cloudy 77 25 52 11 42 42 WNW 13 20 29.85 1011 10 16.0934 0 0
7:10 pm 19:10 Partly Cloudy 75 24 50 10 41 41 NW 12 19 29.85 1011 10 16.0934 0 0
7:35 pm 19:35 Sunny 73 23 50 10 44 44 WNW 10 17 29.85 1011 10 16.0934 0 0
7:55 pm 19:55 Sunny 72 22 50 10 47 47 NW 9 15 29.85 1011 10 16.0934 0 0
8:15 pm 20:15 Clear 68 20 52 11 56 56 WNW 8 13 29.88 1012 10 16.0934 0 0
8:30 pm 20:30 Clear 66 19 52 11 60 60 WNW 6 9 29.88 1012 10 16.0934 0 0
8:50 pm 20:50 Clear 64 18 52 11 64 64 WNW 6 9 29.88 1012 10 16.0934 0 0
9:15 pm 21:15 Clear 64 18 52 11 64 64 Calm 29.88 1012 10 16.0934 0 0
9:35 pm 21:35 Clear 64 18 52 11 64 64 Calm 29.88 1012 10 16.0934 0 0
9:55 pm 21:55 Clear 63 17 50 10 64 64 WNW 3 6 29.88 1012 10 16.0934 0 0
10:15 pm 22:15 Clear 59 15 54 12 82 82 W 6 9 29.91 1013 10 16.0934 0 0
10:35 pm 22:35 Clear 55 13 54 12 94 94 W 12 19 29.91 1013 10 16.0934 0 0
10:55 pm 22:55 Clear 61 16 52 11 72 72 WSW 3 6 29.91 1013 10 16.0934 0 0
11:15 pm 23:15 Clear 59 15 52 11 77 77 WNW 9 15 29.91 1013 10 16.0934 0 0
11:35 pm 23:35 Clear 59 15 52 11 77 77 WNW 6 9 29.91 1013 10 16.0934 0 0
11:55 pm 23:55 Clear 59 15 52 11 77 77 W 5 7 29.91 1013 10 16.0934 0 0

Powered by AerisWeather